Regional Weather Roundup
Issued by NWS Upton, NY

Current Version | Previous Version | Graphics & Text | Print | Product List | Glossary Off
Versions: 1 2 3 4 5 6 7 8 9 10 11 12 13 14 15 16 17 18 19 20 21 22 23 24 25 26 27 28 29 30 31 32 33 34 35 36 37 38 39 40 41 42 43 44 45 46 47 48 49 50

000
ASUS41 KOKX 270105
RWROKX

REGIONAL WEATHER ROUNDUP
NATIONAL WEATHER SERVICE NEW YORK NY
900 PM EDT TUE AUG 26 2014

NOTE: "FAIR" INDICATES FEW OR NO CLOUDS BELOW 12,000 FEET WITH NO
SIGNIFICANT WEATHER AND/OR OBSTRUCTIONS TO VISIBILITY.

NYZ071-072-176-178-NJZ106-104-270200-
NEW YORK CITY METRO AREA


CITY           SKY/WX    TMP DP  RH WIND       PRES   REMARKS
CENTRAL PARK   CLEAR     75  61  61 CALM      30.12R
LAGUARDIA APRT PTCLDY    75  65  70 S10       30.09R
KENNEDY INTL   PTCLDY    73  65  75 S9        30.11R
NEWARK/LIBERTY PTCLDY    77  65  66 S6        30.09R
BRNX BOT. GARD   N/A     73  63  68 SE7       30.11S
TETERBORO      CLEAR     75  60  59 S5        30.08R
$$

NYZ177-179-078>081-270200-
LONG ISLAND NEW YORK

CITY           SKY/WX    TMP DP  RH WIND       PRES   REMARKS
FARMINGDALE    CLEAR     71  65  81 S9        30.11R
ISLIP          PTCLDY    72  62  71 S7        30.09R
SHIRLEY        CLEAR     70  61  73 S6        30.12R
WESTHAMPTON    CLEAR     68  61  78 S5        30.13R
MONTAUK POINT    N/A     70  66  87 SW5       30.12R
$$

NYZ052-065-067-270200-
HUDSON VALLEY

CITY           SKY/WX    TMP DP  RH WIND       PRES   REMARKS
WHITE PLAINS   CLEAR     72  62  71 S3        30.11R
NEWBURGH       CLEAR     77  64  65 CALM      30.10R
MONTGOMERY     CLEAR     70  60  70 CALM      30.08R
POUGHKEEPSIE   PTCLDY    78  64  61 VRB3      30.07R
ALBANY         PTCLDY    74  63  68 SW5       30.04S
$$

NJZ001-105-106-008-010-013-015-019>022-104-270200-
NEW JERSEY

CITY           SKY/WX    TMP DP  RH WIND       PRES   REMARKS
NEWARK/LIBERTY PTCLDY    77  65  66 S6        30.09R
TETERBORO      CLEAR     75  60  59 S5        30.08R
CALDWELL       CLEAR     77  62  59 CALM      30.10R
MORRISTOWN     CLEAR     70  64  83 CALM      30.10R
SOMERVILLE     CLEAR     72  65  78 CALM      30.09R
LINDEN         FAIR      81  65  59 S5        30.11R
SUSSEX         CLEAR     72  65  78 CALM      30.10R
ANDOVER          N/A     68  64  87 S3        30.11R
TRENTON        CLEAR     76  63  64 S9        30.10R
MILLVILLE      CLEAR     69  61  75 SE5       30.13R
ATLANTIC CITY  CLEAR     69  63  81 S5        30.13R
WRIGHTSTOWN    CLEAR     70  63  77 S7        30.09R
TOMS RIVER     CLEAR     66  63  88 CALM      30.12S
BELMAR         CLEAR     70  63  78 S5        30.11S
$$

PAZ047>061-062-071-270200-
EASTERN PENNSYLVANIA

CITY           SKY/WX    TMP DP  RH WIND       PRES   REMARKS
PHILADELPHIA   CLEAR     78  66  66 SW7       30.11R
ALLENTOWN      CLEAR     76  60  57 CALM      30.11R
SCRANTON       CLEAR     71  61  70 S3        30.12R
$$

CTZ002-004>006-009-010-012-RIZ004-006-007-MAZ004-011-015-270200-
SOUTHERN NEW ENGLAND
 IN CT

CITY           SKY/WX    TMP DP  RH WIND       PRES   REMARKS
BRADLEY INTL   PTCLDY    76  64  66 S7        30.07R
HARTFORD       CLEAR     73  63  70 S6        30.08R
DANBURY        CLEAR     73  64  73 S3        30.11R
WTRBRY/OXFORD  CLEAR     70  63  78 S6        30.13
BRIDGEPORT     CLEAR     75  65  70 S9        30.09R
MERIDEN        CLEAR     72  63  73 S7        30.09R
NEW HAVEN      CLEAR     74  66  76 S8        30.10R
CHESTER        FAIR      68  64  88 S6        30.12R
GROTON         CLEAR     68  63  84 S7        30.10R
WILLIMANTIC    CLEAR     71  63  75 S3        30.10R

 IN RI

CITY           SKY/WX    TMP DP  RH WIND       PRES   REMARKS
PROVIDENCE     CLEAR     69  59  70 S9        30.10R
BLOCK ISLAND   CLEAR     68  63  83 SW8       30.11S
WESTERLY       CLEAR     67  63  87 CALM      30.11R

 IN MA

CITY           SKY/WX    TMP DP  RH WIND       PRES   REMARKS
BOSTON         PTCLDY    74  62  66 SW15      30.05R
WORCESTER      CLEAR     71  65  81 SW8       30.10R
WESTFIELD      CLEAR     73  64  73 S8        30.07R
PROVINCETOWN   CLEAR     68  61  77 MISG      30.09S
NANTUCKET      CLEAR     63  60  90 S7        30.11R
$$

ANZ330-335-338-340-345-350-353-355-270200-
COASTAL MARINE OBSERVATIONS


STATION/POSITION TIME  SKY/WX   TEMP    WIND        PRES    VSBY  WAVE
                                AIR SEA DIR/SP/G                  HT/PER
                 (UTC)          (F)     (DEG/KT/KT) (MB)    (MI)  (FT/S)
NY HARB ENTRANCE NOT AVBL
4S FIRE IS       NOT AVBL
23SW MTP         0100                                 N/A           3/ 8
HUDSON CANYON    0100            72 72  130/  6/  6 1019.6          4/ 8
EXECUTION ROCKS  0100            75 75  200/  8/ 12   N/A
WESTERN LI SOUND 0100            75     210/  8/ 12   N/A           0
CENTRAL LI SOUND 0000            72 74  210/ 12/ 16   N/A           1/ 3
EASTERN LI SOUND 0000            71 71  200/  8/ 10   N/A
ROBBINS REEF     0100            74     160/ 15/ 17   N/A
$$


>>>>>>>>>>>>>>>>>>>>>>>>>>>> KEY <<<<<<<<<<<<<<<<<<<<<<<<<<<
>                                                          <
>     SKY/WX - SKY CONDITION/PRESENT WEATHER               <
>     TMP    - TEMPERATURE IN FAHRENHEIT                   <
>     DP     - DEWPOINT IN FAHRENHEIT                      <
>     RH     - RELATIVE HUMIDITY IN PERCENT                <
>     WIND   - DIRECTION AND SPEED IN MPH                  <
>     PRES   - MEAN SEA LEVEL PRESSURE IN INCHES OF HG     <
>     WCI    - WIND CHILL INDEX                            <
>     VSB    - VISIBILITY IN MILES                         <
>     HX     - HEAT INDEX                                  <
>     TC     - TEMPERATURE IN CELSIUS                      <
>     VRB    - VARIABLE WIND DIRECTION                     <
>                                                          <
>>>>>>>>>>>>>>>>>>>>>>>>>>>> KEY <<<<<<<<<<<<<<<<<<<<<<<<<<<




USA.gov is the U.S. government's official web portal to all federal, state and local government web resources and services.